Find Starlink 3135

NORAD ID: 49424 Int'l Des: 2021-104 Owner: SPXS Country: US Constellation: starlink operational
LEOCIRCULAR

实时位置

正在加载3D地球...

关于 Starlink 3135

正在加载描述...

即将过境

Passes for default location (London). Set your location on the main map for personalized predictions.

高度历史

Loading altitude history...

两行轨道根数

1 49424U 21104S 26125.78878030 -.00003020 00000-0 -17168-3 0 9991
2 49424 53.2176 332.7923 0001807 107.1543 252.9647 15.08846615247243
Epoch: May 5, 2026 • Age: 7 hours

当前状态

高度 539.4 km
速度 7.59 km/s
星下点 7.55°N, 108.78°W
发射日期 Nov 13, 2021
运行时间 4.4 years
类型 internet

技术详情

分类 Payload
质量 290.00 kg
干质量 270.00 kg
总质量 290.00 kg
长度 0.20 m
直径 2.80 m
跨度 9.00 m
形状 Box + pan
制造商 SPXS
平台类型 Starlink
阶段状态 In Orbit
所有者/国家 SPXS/US

Most Searched